E24OWX-1 Weather Reports


Display with metric or nautical units.
time (UTC)temp
F
wind
direction
speed
MPH
gust
MPH
rain 1hr
in
rain 24hr
in
rain mn
in
humidity
%
barometer
mb
20260508035127 97 0 0.0 0.0 0.00 0.00 0.00 99 1008.0
20260508033605 95 0 0.0 0.0 0.00 0.00 0.00 99 1008.0
20260508032043 95 0 0.0 0.0 0.00 0.00 0.00 99 1009.0
20260508030521 94 0 0.0 0.0 0.00 0.00 0.00 99 1009.0
20260508024959 93 0 0.0 0.0 0.00 0.00 0.00 99 1009.0
20260508023437 93 0 0.0 0.0 0.00 0.00 0.00 99 1009.0
20260508021915 92 0 0.0 0.0 0.00 0.00 0.00 99 1009.0
20260508020353 92 0 0.0 0.0 0.00 0.00 0.00 99 1009.0
20260508014831 90 0 0.0 0.0 0.00 0.00 0.00 99 1009.0
20260508013309 89 0 0.0 0.0 0.00 0.00 0.00 99 1009.0
20260508011747 88 0 0.0 0.0 0.00 0.00 0.00 99 1009.0
20260508010225 88 0 0.0 0.0 0.00 0.00 0.00 99 1009.0
20260508004703 88 0 0.0 0.0 0.00 0.00 0.00 99 1008.0
20260508003141 86 0 0.0 0.0 0.00 0.00 0.00 99 1008.0
20260508001619 86 0 0.0 0.0 0.00 0.00 0.00 99 1008.0
20260508000057 85 0 0.0 0.0 0.00 0.00 0.00 99 1008.0
20260507234535 84 0 0.0 0.0 0.00 0.00 0.00 99 1008.0
20260507233013 84 0 0.0 0.0 0.00 0.00 0.00 99 1008.0
20260507231503 84 0 0.0 0.0 0.00 0.00 0.00 99 1008.0
20260507225929 84 0 0.0 0.0 0.00 0.00 0.00 99 1008.0
20260507224407 84 0 0.0 0.0 0.00 0.00 0.00 99 1007.0
20260507222845 84 0 0.0 0.0 0.00 0.00 0.00 99 1007.0
20260507221323 84 0 0.0 0.0 0.00 0.00 0.00 99 1007.0
20260507215801 84 0 0.0 0.0 0.00 0.00 0.00 99 1007.0
20260507214239 84 0 0.0 0.0 0.00 0.00 0.00 99 1007.0
20260507212717 84 0 0.0 0.0 0.00 0.00 0.00 99 1006.0
20260507211155 84 0 0.0 0.0 0.00 0.00 0.00 99 1006.0
20260507205633 84 0 0.0 0.0 0.00 0.00 0.00 99 1006.0
20260507204111 84 0 0.0 0.0 0.00 0.00 0.00 99 1006.0
20260507202549 84 0 0.0 0.0 0.00 0.00 0.00 99 1006.0
20260507201027 84 0 0.0 0.0 0.00 0.00 0.00 99 1006.0
20260507195505 84 0 0.0 0.0 0.00 0.00 0.00 99 1006.0
20260507193943 84 0 0.0 0.0 0.00 0.00 0.00 99 1006.0
20260507192421 85 0 0.0 0.0 0.00 0.00 0.00 99 1006.0
20260507190859 85 0 0.0 0.0 0.00 0.00 0.00 99 1006.0
20260507185337 85 0 0.0 0.0 0.00 0.00 0.00 99 1006.0
20260507183815 84 0 0.0 0.0 0.00 0.00 0.00 99 1006.0
20260507182253 85 0 0.0 0.0 0.00 0.00 0.00 99 1007.0
20260507180731 85 0 0.0 0.0 0.00 0.00 0.00 99 1007.0
20260507175209 85 0 0.0 0.0 0.00 0.00 0.00 99 1007.0
20260507173647 86 0 0.0 0.0 0.00 0.00 0.00 99 1007.0
20260507172125 86 0 0.0 0.0 0.00 0.00 0.00 99 1007.0
20260507170603 86 0 0.0 0.0 0.00 0.00 0.00 99 1007.0
20260507165041 86 0 0.0 0.0 0.00 0.00 0.00 99 1007.0
20260507163519 86 0 0.0 0.0 0.00 0.00 0.00 99 1008.0
20260507161957 86 0 0.0 0.0 0.00 0.00 0.00 99 1008.0
20260507160435 86 0 0.0 0.0 0.00 0.00 0.00 99 1008.0
20260507154913 87 0 0.0 0.0 0.00 0.00 0.00 99 1008.0
20260507153617 87 0 0.0 0.0 0.00 0.00 0.00
20260507153351 87 0 0.0 0.0 0.00 0.00 0.00 99 1008.0
20260507152123 87 0 0.0 0.0 0.00 0.00 0.00 99 1008.0
20260507151829 87 0 0.0 0.0 0.00 0.00 0.00 99 1008.0
20260507150307 88 0 0.0 0.0 0.00 0.00 0.00 99 1008.0
20260507144745 88 0 0.0 0.0 0.00 0.00 0.00 99 1008.0
20260507143223 88 0 0.0 0.0 0.00 0.00 0.00 99 1007.0
20260507141701 88 0 0.0 0.0 0.00 0.00 0.00 99 1007.0
20260507140139 88 0 0.0 0.0 0.00 0.00 0.00 99 1007.0
20260507134617 88 0 0.0 0.0 0.00 0.00 0.00 99 1006.0
20260507133055 88 0 0.0 0.0 0.00 0.00 0.00 99 1006.0
20260507131533 89 0 0.0 0.0 0.00 0.00 0.00 99 1005.0
20260507130011 89 0 0.0 0.0 0.00 0.00 0.00 99 1005.0
20260507124449 88 0 0.0 0.0 0.00 0.00 0.00 99 1005.0
20260507122927 88 0 0.0 0.0 0.00 0.00 0.00 99 1005.0
20260507121405 88 0 0.0 0.0 0.00 0.00 0.00 99 1005.0
20260507115843 88 0 0.0 0.0 0.00 0.00 0.00 99 1004.0
20260507114321 87 0 0.0 0.0 0.00 0.00 0.00 99 1004.0
20260507112758 89 0 0.0 0.0 0.00 0.00 0.00 99 1004.0
20260507111236 89 0 0.0 0.0 0.00 0.00 0.00 99 1004.0
20260507105715 90 0 0.0 0.0 0.00 0.00 0.00 99 1004.0
20260507104153 88 0 0.0 0.0 0.00 0.00 0.00 99 1003.0
20260507102631 88 0 0.0 0.0 0.00 0.00 0.00 99 1003.0
20260507101109 87 0 0.0 0.0 0.00 0.00 0.00 99 1003.0
20260507095532 86 0 0.0 0.0 0.00 0.00 0.00 99 1003.0
20260507084432 99 0 0.0 0.0 0.00 0.00 0.00 95 1003.0
20260507082910 104 0 0.0 0.0 0.00 0.00 0.00 79 1002.0
20260507081348 103 0 0.0 0.0 0.00 0.00 0.00 76 1002.0
20260507075826 103 0 0.0 0.0 0.00 0.00 0.00 83 1002.0
20260507074304 102 0 0.0 0.0 0.00 0.00 0.00 80 1002.0
20260507072742 102 0 0.0 0.0 0.00 0.00 0.00 83 1003.0
20260507071225 102 0 0.0 0.0 0.00 0.00 0.00 88 1003.0
20260507065658 102 0 0.0 0.0 0.00 0.00 0.00 92 1003.0
20260507064137 102 0 0.0 0.0 0.00 0.00 0.00 93 1004.0
20260507062615 101 0 0.0 0.0 0.00 0.00 0.00 96 1004.0
20260507061053 101 0 0.0 0.0 0.00 0.00 0.00 97 1004.0
20260507055530 100 0 0.0 0.0 0.00 0.00 0.00 99 1005.0
20260507054008 98 0 0.0 0.0 0.00 0.00 0.00 99 1005.0
20260507052446 97 0 0.0 0.0 0.00 0.00 0.00 99 1006.0
20260507050924 98 0 0.0 0.0 0.00 0.00 0.00 99 1006.0
20260507045402 98 0 0.0 0.0 0.00 0.00 0.00 99 1006.0
20260507043840 99 0 0.0 0.0 0.00 0.00 0.00 99 1006.0
20260507042318 98 0 0.0 0.0 0.00 0.00 0.00 99 1007.0
20260507040756 99 0 0.0 0.0 0.00 0.00 0.00 99 1007.0